Overview Statistics Trail Chart Weather Telemetry Raw packets
 

This is the latest recevied weather packets stored in our database for station/object NK7E-2. If no packets are shown the sender has not sent any weather packets the latest 10 day(s).

<< 28 29 30 31 32 33 34 >>
Time Temp. Humidity Pressure Rain* Wind** Luminosity Snow
1788024017 35.56° C 25% 1031 hPa 0 mm - - -
1788023417 35.56° C 26% 1031.2 hPa 0 mm - - -
1788022817 35° C 26% 1031.2 hPa 0 mm - - -
1788022217 34.44° C 27% 1030.8 hPa 0 mm - - -
1788021615 34.44° C 28% 1030.7 hPa 0 mm - - -
1788021017 33.89° C 29% 1030.6 hPa 0 mm - - -
1788020417 33.89° C 29% 1030.8 hPa 0 mm - - -
1788019817 33.89° C 29% 1030.6 hPa 0 mm - - -
1788019217 33.33° C 30% 1030.4 hPa 0 mm - - -
1788018617 33.33° C 30% 1030.1 hPa 0 mm - - -
1788018017 33.33° C 30% 1030.1 hPa 0 mm - - -
1788017417 33.33° C 30% 1030.2 hPa 0 mm - - -
1788016817 33.33° C 30% 1030.3 hPa 0 mm - - -
1788016217 32.78° C 31% 1029.9 hPa 0 mm - - -
1788015617 32.22° C 32% 1029.8 hPa 0 mm - - -
1788015017 31.67° C 34% 1029.6 hPa 0 mm - - -
1788014417 31.11° C 35% 1029.6 hPa 0 mm - - -
1788013817 30.56° C 36% 1029.4 hPa 0 mm - - -
1788013217 29.44° C 38% 1029.4 hPa 0 mm - - -
1788012617 28.33° C 42% 1029.5 hPa 0 mm - - -
1788012017 27.22° C 46% 1029 hPa 0 mm - - -
1788011417 26.11° C 49% 1028.6 hPa 0 mm - - -
1788010817 25.56° C 49% 1028.5 hPa 0 mm - - -
1788010217 25.56° C 49% 1028.5 hPa 0 mm - - -
1788009620 25.56° C 48% 1028.4 hPa 0 mm - - -

* Rain latest hour (hover to see other rain measurements)
** Current wind speed in m/s (hover to see current wind gust speed)